Change the Weather History Date:

Sunday, August 5, 2012

  Actual Average Record
Temperature  
Mean Temperature 81 °F 81 °F  
Max Temperature 88 °F 91 °F 105 °F (1954)
Min Temperature 74 °F 72 °F 60 °F (1976)
Degree Days  
Heating Degree Days 0 0  
Month to date heating degree days 0 0  
Since 1 June heating degree days 0 1  
Since 1 July heating degree days 0 0  
Cooling Degree Days 16 16  
Month to date cooling degree days 84 84  
Year to date cooling degree days 1530 1306  
Since 1 June cooling degree days 982 1003  
Growing Degree Days 28 (Base 50)    
Moisture  
Dew Point 73 °F    
Average Humidity 82    
Maximum Humidity 94    
Minimum Humidity 69    
Precipitation  
Precipitation 0.14 in 0.19 in 1.59 in (1969)
Month to date precipitation 0.30 0.88  
Year to date precipitation 27.83 28.91  
Sea Level Pressure  
Sea Level Pressure 30.17 in    
Wind  
Wind Speed 4 mph (ESE)    
Max Wind Speed 17 mph    
Max Gust Speed 23 mph    
Visibility 9 miles    
Events Rain    
T = Trace of Precipitation, MM = Missing Value Source: NWS Daily Summary

Daily Weather History Graph

Daily Weather History Graph

Search for Another Location

Airport or City:

Trip Planner

Search our weather history database for the weather conditions in past years. The results will help you decide how hot, cold, wet, or windy it might be!

Date:

Astronomy

Aug. 05, 2012 Rise Set
Actual Time 6:39 AM EDT 8:19 PM EDT
Civil Twilight 6:12 AM EDT 8:45 PM EDT
Nautical Twilight 5:39 AM EDT 9:18 PM EDT
Astronomical Twilight 5:05 AM EDT 9:52 PM EDT
Moon 10:13 PM EDT (8/5) 10:11 AM EDT (8/5)
Length of Visible Light 14h 33m
Length of Day
13h 40m
Waning Gibbous, 86% of the Moon is Illuminated
Aug 5
Waning Gibbous
Aug 9
Last Quarter
Aug 17
New
Aug 24
First Quarter
Aug 31
Full

Hourly Weather History & Observations

Time (EDT) Temp. Heat Index Dew Point Humidity Pressure Visibility Wind Dir Wind Speed Gust Speed Precip Events Conditions
12:53 AM 75.0 °F - 71.1 °F 87% 30.18 in 10.0 mi Calm Calm - N/A   Clear
1:53 AM 75.0 °F - 72.0 °F 90% 30.18 in 10.0 mi Calm Calm - N/A   Clear
2:53 AM 75.0 °F - 71.1 °F 87% 30.18 in 10.0 mi Calm Calm - N/A   Clear
3:53 AM 75.0 °F - 72.0 °F 90% 30.16 in 10.0 mi ENE 3.5 mph - N/A   Partly Cloudy
4:53 AM 75.0 °F - 72.0 °F 90% 30.15 in 10.0 mi East 3.5 mph - N/A   Clear
5:53 AM 73.9 °F - 72.0 °F 93% 30.15 in 9.0 mi Calm Calm - N/A   Clear
6:53 AM 75.0 °F - 72.0 °F 90% 30.17 in 9.0 mi Calm Calm - N/A   Partly Cloudy
7:53 AM 77.0 °F - 73.9 °F 90% 30.17 in 10.0 mi East 3.5 mph - N/A   Partly Cloudy
8:53 AM 81.0 °F 86.7 °F 75.0 °F 82% 30.19 in 10.0 mi ESE 5.8 mph - N/A   Clear
9:37 AM 82.4 °F 89.5 °F 75.2 °F 79% 30.20 in 10.0 mi SE 5.8 mph - N/A   Mostly Cloudy
9:53 AM 82.9 °F 89.4 °F 73.9 °F 74% 30.20 in 10.0 mi Variable 5.8 mph - N/A   Mostly Cloudy
10:51 AM 84.2 °F 90.9 °F 73.4 °F 70% 30.21 in 10.0 mi East 4.6 mph - N/A   Partly Cloudy
10:53 AM 84.9 °F 91.4 °F 73.0 °F 67% 30.21 in 10.0 mi East 4.6 mph - N/A   Scattered Clouds
11:16 AM 84.2 °F 90.9 °F 73.4 °F 70% 30.21 in 10.0 mi Variable 4.6 mph - N/A   Mostly Cloudy
11:53 AM 81.0 °F 84.9 °F 71.1 °F 72% 30.21 in 10.0 mi SSW 12.7 mph 23.0 mph N/A   Mostly Cloudy
12:08 PM 75.2 °F - 71.6 °F 89% 30.22 in 1.5 mi SE 4.6 mph - 0.08 in Rain Heavy Rain
12:19 PM 75.2 °F - 71.6 °F 89% 30.21 in 2.0 mi Calm Calm - 0.14 in Rain Light Rain
12:26 PM 75.2 °F - 71.6 °F 89% 30.21 in 9.0 mi North 3.5 mph - 0.14 in Rain Light Rain
12:53 PM 77.0 °F - 73.0 °F 88% 30.21 in 10.0 mi NNW 3.5 mph - 0.14 in   Partly Cloudy
1:53 PM 80.1 °F 84.2 °F 73.0 °F 79% 30.20 in 10.0 mi ENE 3.5 mph - 0.00 in   Clear
2:53 PM 82.9 °F 88.0 °F 72.0 °F 69% 30.18 in 10.0 mi ENE 4.6 mph - N/A   Clear
3:53 PM 82.0 °F 86.7 °F 72.0 °F 71% 30.16 in 10.0 mi ESE 8.1 mph - N/A   Clear
4:53 PM 82.9 °F 88.8 °F 73.0 °F 72% 30.15 in 10.0 mi ESE 6.9 mph - N/A   Clear
5:53 PM 82.9 °F 88.0 °F 72.0 °F 69% 30.15 in 10.0 mi SE 6.9 mph - N/A   Clear
6:53 PM 82.9 °F 88.0 °F 72.0 °F 69% 30.12 in 10.0 mi ESE 5.8 mph - N/A   Clear
7:53 PM 80.1 °F 83.8 °F 72.0 °F 76% 30.12 in 10.0 mi SE 3.5 mph - N/A   Partly Cloudy
8:12 PM 78.8 °F - 73.4 °F 83% 30.13 in 10.0 mi SE 3.5 mph - N/A   Mostly Cloudy
8:23 PM 78.8 °F - 73.4 °F 83% 30.13 in 10.0 mi SE 3.5 mph - N/A   Scattered Clouds
8:53 PM 78.1 °F - 73.0 °F 84% 30.14 in 10.0 mi Calm Calm - N/A   Clear
9:53 PM 77.0 °F - 73.0 °F 88% 30.16 in 10.0 mi Calm Calm - N/A   Partly Cloudy
10:53 PM 75.9 °F - 73.0 °F 91% 30.15 in 10.0 mi SE 4.6 mph - N/A   Clear
11:53 PM 75.0 °F - 72.0 °F 90% 30.16 in 10.0 mi Calm Calm - N/A   Clear